Regional Weather Roundup
Issued by NWS New Orleans/Baton Rouge, LA

Home | Current Version | Previous Version | Text Only | Print | Product List | Glossary On
Versions: 1 2 3 4 5 6 7 8 9 10 11 12 13 14 15 16 17 18 19 20 21 22 23 24 25 26 27 28 29 30 31 32 33 34 35 36 37 38 39 40 41 42 43 44 45 46 47 48 49 50
000
ASUS44 KLIX 301812
RWRLIX
NEW ORLEANS REGIONAL WEATHER ROUNDUP
NATIONAL WEATHER SERVICE NEW ORLEANS LA
100 PM CDT THU JUL 30 2015

NOTE: "FAIR" INDICATES FEW OR NO CLOUDS BELOW 12,000 FEET WITH NO
      SIGNIFICANT WEATHER AND/OR OBSTRUCTIONS TO VISIBILITY.
      SKY/WX - SKY CONDITION AND SIGNIFICANT WEATHER.
      TMP - AIR TEMPERATURE.     DP    - DEWPOINT TEMPERATURE.
      RH  - RELATIVE HUMIDITY.   PRES  - PRESSURE.
      HI  - HEAT INDEX.          WCI   - WIND CHILL INDEX.

*  THESE STATIONS ARE NOT NWS OR FAA STATIONS AND ARE NOT UNDER
   NWS QUALITY CONTROL.

LAZ038-040-048-061>063-065>067-069-301900-
SOUTHEAST LOUISIANA

CITY           SKY/WX    TMP DP  RH WIND       PRES   REMARKS
N.O. AUDUBON     N/A     96  76  53 MISG        N/A  HX 110
6HR MIN TEMP:  79; 6HR MAX TEMP:  96;

N.O. INTL ARPT PTSUNNY   92  74  55 N9        30.00F HX 101
6HR MIN TEMP:  81; 6HR MAX TEMP:  93;

N.O. LAKEFRONT MOSUNNY   90  77  65 N8        30.01S HX 103
6HR MIN TEMP:  82; 6HR MAX TEMP:  91; 6HR PCP: TRACE;

N.O. DOWNTOWN*   N/A     93  73  52 N8        30.01S HX 102
6HR MIN TEMP:  81; 6HR MAX TEMP:  93;

RESERVE*         N/A     94  76  55 N6        30.01S HX 107
6HR MIN TEMP:  77; 6HR MAX TEMP:  94;

SLIDELL        MOSUNNY   92  78  63 VRB3      29.99F HX 107
6HR MIN TEMP:  76; 6HR MAX TEMP:  92; 6HR PCP:  0.33;

BATON ROUGE    SUNNY     96  75  50 E6        30.01F HX 108
6HR MIN TEMP:  78; 6HR MAX TEMP:  98;

BOOTHVILLE     MOSUNNY   91  78  65 NE6       30.00F HX 106
6HR MIN TEMP:  83; 6HR MAX TEMP:  91;

BELLE CHASSE   PTSUNNY   93  76  57 N8        29.99F HX 105
6HR MIN TEMP:  76; 6HR MAX TEMP:  93;

BOGALUSA*        N/A     93  79  63 CALM      30.02F HX 109
6HR MIN TEMP:  77; 6HR MAX TEMP:  93; 6HR PCP:  0.02;

GALLIANO*      NOT AVBL
NEW ROADS*       N/A    N/A N/A N/A NW8       30.01F
GONZALES*        N/A     96  73  48 N6        30.00F HX 105
6HR MIN TEMP:  76; 6HR MAX TEMP:  96;

HAMMOND*       MOSUNNY   95  73  49 NE6       30.01F HX 105
HOUMA*         SUNNY     91  75  59 NE7       30.01S HX 102
PORT FOURCHON* CLEAR     91  77  62 NE7       30.01S HX 105

$$

MSZ070-080>082-301900-
SOUTHERN MISSISSIPPI

CITY           SKY/WX    TMP DP  RH WIND       PRES   REMARKS
MCCOMB         MOSUNNY   96  76  52 VRB5      30.02F HX 109
6HR MIN TEMP:  76; 6HR MAX TEMP:  95;

GULFPORT       MOSUNNY   94  76  55 N9        29.97F HX 106
6HR MIN TEMP:  77; 6HR MAX TEMP:  95;

BILOXI         MOSUNNY   94  78  59 N8        29.97F HX 109
6HR MIN TEMP:  78; 6HR MAX TEMP:  94;

PASCAGOULA     MOSUNNY   91  77  63 NW7       29.97F HX 104
6HR MIN TEMP:  77; 6HR MAX TEMP:  93;

STENNIS ARPT*  MOSUNNY   91  72  52 N7        29.99F HX  98

$$

COASTAL OBSERVATIONS
LAKE AND NEARSHORE STATIONS

STATION/POSITION TIME  TEMP    WIND        PRES    WAVE
                       AIR SEA DIR/SP/G            HT/PER
                 (UTC) (F)     (DEG/KT/KT) (MB)    (FT/S)
PASCAGOULA       1700   92      30/  8/ 12 1014.9
WAVELAND YACHT   1700   89 87  360/ 10/ 11 1016.2
GRAND ISLE       1700   88 89   30/  5/  7 1016.1
SOUTHWEST PASS   1700   91 87  360/  8/  9 1016.5
NEW CANAL        1700   86 89   10/  9/ 10 1015.4
SHELL BEACH      1700   85 88   10/  8/ 11 1015.5

OFFSHORE STATIONS

STATION/POSITION TIME  TEMP    WIND        PRES    WAVE
                       AIR SEA DIR/SP/G            HT/PER
                 (UTC) (F)     (DEG/KT/KT) (MB)    (FT/S)
64 S DAUPHIN ISL 1750   85 90  360/  6/  8 1015.4    1/ 4

$$




USA.gov is the U.S. government's official web portal to all federal, state and local government web resources and services.